QPF
0.07 0.08 0.09 0.09 0.09 0.09 0.09 0.08 0.06 0.05 0.04 0.04 0.04 0.04 0.03 0.04 0.05 0.05 0.06 0.05 0.03 0.01 0.01 0.00 0.01 0.01 0.01 0.01 0.01 0.02 0.02 0.02 0.02 0.04 0.06 0.07 0.08 0.09
0.06 0.06 0.06 0.07 0.09 0.09 0.08 0.08 0.07 0.06 0.04 0.02 0.03 0.02 0.02 0.02 0.03 0.06 0.07 0.05 0.04 0.02 0.01 0.00 0.00 0.00 0.01 0.01 0.02 0.01 0.01 0.01 0.01 0.02 0.04 0.07 0.09 0.09
0.04 0.04 0.04 0.05 0.09 0.11 0.10 0.09 0.07 0.06 0.04 0.02 0.01 0.02 0.02 0.02 0.02 0.05 0.07 0.07 0.04 0.03 0.02 0.01 0.00 0.00 0.00 0.00 0.01 0.02 0.02 0.01 0.01 0.01 0.02 0.03 0.05 0.10
0.02 0.03 0.04 0.04 0.06 0.09 0.09 0.07 0.07 0.06 0.05 0.03 0.03 0.02 0.03 0.03 0.03 0.03 0.05 0.07 0.07 0.04 0.03 0.02 0.01 0.01 0.00 0.00 0.01 0.01 0.01 0.01 0.00 0.01 0.01 0.02 0.02 0.04
0.03 0.03 0.04 0.04 0.06 0.08 0.07 0.07 0.06 0.05 0.04 0.04 0.03 0.03 0.04 0.04 0.04 0.03 0.03 0.05 0.06 0.06 0.05 0.03 0.02 0.02 0.01 0.01 0.00 0.00 0.00 0.00 0.00 0.00 0.00 0.01 0.01 0.01
0.03 0.02 0.02 0.03 0.05 0.07 0.05 0.05 0.06 0.06 0.05 0.04 0.03 0.04 0.05 0.06 0.07 0.05 0.05 0.04 0.05 0.06 0.06 0.05 0.03 0.03 0.02 0.02 0.01 0.01 0.01 0.01 0.01 0.01 0.00 0.00 0.00 0.01
0.02 0.02 0.02 0.02 0.03 0.04 0.04 0.05 0.06 0.06 0.05 0.05 0.04 0.03 0.05 0.07 0.08 0.08 0.06 0.05 0.04 0.05 0.06 0.06 0.05 0.04 0.03 0.02 0.02 0.02 0.02 0.02 0.03 0.02 0.02 0.01 0.01 0.01
0.02 0.02 0.02 0.02 0.02 0.03 0.03 0.04 0.05 0.05 0.05 0.06 0.04 0.04 0.05 0.06 0.07 0.06 0.07 0.07 0.07 0.06 0.06 0.07 0.05 0.05 0.04 0.03 0.02 0.02 0.02 0.02 0.02 0.02 0.02 0.02 0.02 0.02
0.02 0.02 0.03 0.02 0.02 0.02 0.02 0.03 0.03 0.04 0.06 0.06 0.06 0.06 0.06 0.06 0.07 0.06 0.07 0.07 0.08 0.06 0.06 0.07 0.07 0.05 0.04 0.03 0.03 0.02 0.02 0.02 0.01 0.01 0.02 0.02 0.02 0.03
0.03 0.02 0.03 0.02 0.02 0.02 0.02 0.03 0.03 0.03 0.04 0.03 0.05 0.07 0.06 0.06 0.07 0.09 0.08 0.07 0.06 0.06 0.06 0.06 0.06 0.06 0.05 0.04 0.03 0.03 0.02 0.02 0.02 0.01 0.02 0.02 0.02 0.02
0.03 0.02 0.03 0.02 0.02 0.02 0.02 0.04 0.05 0.04 0.03 0.04 0.05 0.05 0.07 0.07 0.06 0.07 0.06 0.06 0.05 0.06 0.07 0.06 0.05 0.06 0.07 0.06 0.05 0.04 0.03 0.02 0.02 0.02 0.02 0.02 0.02 0.03
0.03 0.03 0.03 0.02 0.02 0.02 0.02 0.04 0.04 0.04 0.03 0.03 0.03 0.04 0.05 0.05 0.05 0.04 0.05 0.06 0.06 0.06 0.06 0.06 0.06 0.06 0.07 0.07 0.07 0.06 0.05 0.04 0.03 0.02 0.02 0.02 0.02 0.02
0.05 0.05 0.03 0.02 0.02 0.02 0.02 0.03 0.03 0.02 0.02 0.02 0.02 0.03 0.04 0.05 0.06 0.05 0.06 0.07 0.06 0.05 0.05 0.06 0.06 0.06 0.05 0.05 0.05 0.06 0.06 0.06 0.05 0.05 0.05 0.03 0.03 0.02
0.06 0.06 0.05 0.04 0.03 0.02 0.01 0.02 0.02 0.02 0.02 0.03 0.03 0.03 0.04 0.04 0.05 0.05 0.05 0.06 0.06 0.05 0.05 0.05 0.05 0.05 0.05 0.05 0.05 0.06 0.06 0.05 0.05 0.05 0.05 0.04 0.03 0.02
0.04 0.06 0.06 0.05 0.03 0.02 0.02 0.03 0.04 0.03 0.03 0.05 0.06 0.05 0.05 0.06 0.06 0.05 0.05 0.05 0.05 0.04 0.04 0.03 0.04 0.05 0.05 0.05 0.05 0.05 0.05 0.05 0.05 0.04 0.03 0.03 0.03 0.02
0.02 0.02 0.02 0.02 0.02 0.02 0.02 0.03 0.04 0.02 0.03 0.04 0.06 0.06 0.05 0.06 0.05 0.05 0.05 0.05 0.05 0.05 0.04 0.04 0.05 0.04 0.04 0.04 0.04 0.04 0.04 0.04 0.03 0.02 0.02 0.02 0.01 0.01
0.01 0.01 0.01 0.01 0.01 0.02 0.02 0.03 0.03 0.02 0.02 0.02 0.03 0.05 0.05 0.04 0.03 0.03 0.04 0.04 0.04 0.04 0.04 0.04 0.04 0.03 0.03 0.03 0.03 0.03 0.02 0.02 0.01 0.02 0.02 0.01 0.01 0.01
0.02 0.01 0.01 0.01 0.02 0.02 0.02 0.02 0.02 0.02 0.02 0.02 0.02 0.03 0.04 0.04 0.04 0.03 0.03 0.03 0.03 0.04 0.04 0.04 0.04 0.04 0.03 0.02 0.01 0.01 0.01 0.02 0.02 0.03 0.02 0.02 0.01 0.01
0.02 0.01 0.01 0.01 0.03 0.02 0.01 0.02 0.02 0.03 0.02 0.02 0.02 0.03 0.03 0.04 0.05 0.05 0.04 0.03 0.03 0.03 0.03 0.03 0.04 0.04 0.04 0.03 0.02 0.02 0.02 0.03 0.03 0.02 0.02 0.02 0.02 0.01
0.04 0.03 0.02 0.02 0.02 0.02 0.01 0.02 0.02 0.03 0.03 0.03 0.02 0.03 0.03 0.04 0.05 0.05 0.04 0.04 0.04 0.04 0.03 0.03 0.04 0.04 0.04 0.03 0.04 0.04 0.04 0.04 0.04 0.04 0.03 0.03 0.02 0.02
0.07 0.08 0.05 0.04 0.03 0.02 0.02 0.02 0.03 0.03 0.03 0.03 0.03 0.03 0.03 0.03 0.03 0.04 0.04 0.04 0.04 0.04 0.04 0.04 0.05 0.05 0.04 0.04 0.04 0.04 0.04 0.05 0.05 0.06 0.06 0.05 0.03 0.02
0.02 0.04 0.05 0.05 0.03 0.03 0.03 0.04 0.04 0.04 0.04 0.04 0.03 0.03 0.03 0.03 0.03 0.03 0.03 0.04 0.04 0.04 0.04 0.03 0.03 0.04 0.04 0.03 0.03 0.03 0.03 0.04 0.04 0.03 0.03 0.04 0.04 0.03
0.02 0.02 0.04 0.04 0.03 0.03 0.03 0.04 0.03 0.04 0.04 0.04 0.03 0.03 0.03 0.03 0.03 0.03 0.03 0.04 0.04 0.05 0.05 0.04 0.04 0.03 0.03 0.03 0.03 0.03 0.02 0.02 0.02 0.02 0.02 0.02 0.02 0.02
MSLP
1011.67 1011.83 1012.16 1012.62 1013.19 1013.83 1014.48 1015.09 1015.63 1016.08 1016.43 1016.69 1016.90 1017.07 1017.26 1017.48 1017.75 1018.08 1018.48 1018.92 1019.39 1019.86 1020.30 1020.71 1021.05 1021.33 1021.53 1021.67 1021.75 1021.77 1021.77 1021.74 1021.70 1021.66 1021.64 1021.63 1021.64 1021.68
1011.65 1011.71 1011.92 1012.28 1012.78 1013.36 1013.99 1014.62 1015.20 1015.71 1016.13 1016.46 1016.71 1016.91 1017.08 1017.26 1017.46 1017.72 1018.04 1018.42 1018.84 1019.30 1019.77 1020.22 1020.63 1020.99 1021.28 1021.50 1021.64 1021.72 1021.74 1021.72 1021.67 1021.61 1021.56 1021.52 1021.51 1021.52
1011.72 1011.69 1011.80 1012.05 1012.45 1012.95 1013.53 1014.13 1014.72 1015.27 1015.73 1016.11 1016.41 1016.63 1016.81 1016.96 1017.13 1017.34 1017.59 1017.92 1018.30 1018.73 1019.20 1019.67 1020.13 1020.54 1020.90 1021.18 1021.39 1021.51 1021.57 1021.57 1021.53 1021.46 1021.40 1021.34 1021.30 1021.29
1011.84 1011.74 1011.76 1011.91 1012.20 1012.60 1013.10 1013.65 1014.21 1014.75 1015.24 1015.65 1015.98 1016.24 1016.43 1016.60 1016.75 1016.93 1017.15 1017.43 1017.78 1018.18 1018.62 1019.09 1019.55 1019.99 1020.37 1020.69 1020.94 1021.10 1021.20 1021.23 1021.22 1021.18 1021.12 1021.07 1021.03 1021.01
1011.97 1011.82 1011.77 1011.83 1012.01 1012.31 1012.70 1013.17 1013.67 1014.18 1014.66 1015.08 1015.44 1015.73 1015.96 1016.15 1016.32 1016.50 1016.70 1016.95 1017.26 1017.62 1018.02 1018.45 1018.88 1019.30 1019.68 1020.00 1020.27 1020.46 1020.59 1020.68 1020.71 1020.73 1020.72 1020.70 1020.69 1020.68
1012.07 1011.90 1011.79 1011.78 1011.86 1012.06 1012.34 1012.71 1013.13 1013.58 1014.02 1014.44 1014.81 1015.13 1015.39 1015.62 1015.82 1016.01 1016.21 1016.44 1016.71 1017.02 1017.37 1017.73 1018.10 1018.46 1018.80 1019.10 1019.36 1019.58 1019.76 1019.90 1020.01 1020.09 1020.16 1020.22 1020.26 1020.29
1012.12 1011.94 1011.81 1011.74 1011.75 1011.85 1012.03 1012.30 1012.62 1012.99 1013.38 1013.76 1014.13 1014.46 1014.75 1015.01 1015.24 1015.45 1015.66 1015.88 1016.11 1016.36 1016.63 1016.91 1017.20 1017.48 1017.76 1018.02 1018.26 1018.49 1018.71 1018.91 1019.11 1019.29 1019.47 1019.61 1019.74 1019.83
1012.10 1011.94 1011.80 1011.70 1011.66 1011.68 1011.78 1011.94 1012.17 1012.45 1012.77 1013.10 1013.44 1013.76 1014.07 1014.34 1014.59 1014.82 1015.03 1015.23 1015.43 1015.62 1015.82 1016.01 1016.20 1016.40 1016.60 1016.80 1017.02 1017.26 1017.51 1017.78 1018.07 1018.35 1018.63 1018.89 1019.10 1019.27
1012.05 1011.91 1011.78 1011.67 1011.60 1011.57 1011.59 1011.67 1011.81 1012.01 1012.24 1012.51 1012.79 1013.09 1013.38 1013.65 1013.91 1014.14 1014.34 1014.53 1014.69 1014.83 1014.95 1015.07 1015.17 1015.28 1015.41 1015.56 1015.75 1015.98 1016.27 1016.59 1016.95 1017.33 1017.71 1018.05 1018.35 1018.59
1011.99 1011.87 1011.75 1011.65 1011.56 1011.50 1011.48 1011.49 1011.56 1011.66 1011.82 1012.01 1012.23 1012.47 1012.73 1012.98 1013.22 1013.44 1013.64 1013.81 1013.94 1014.04 1014.11 1014.16 1014.20 1014.24 1014.31 1014.41 1014.57 1014.79 1015.08 1015.44 1015.84 1016.28 1016.72 1017.13 1017.50 1017.79
1011.95 1011.84 1011.74 1011.64 1011.55 1011.47 1011.41 1011.38 1011.38 1011.41 1011.49 1011.61 1011.76 1011.95 1012.15 1012.37 1012.58 1012.79 1012.97 1013.12 1013.24 1013.32 1013.36 1013.37 1013.37 1013.37 1013.39 1013.45 1013.58 1013.77 1014.05 1014.40 1014.81 1015.26 1015.72 1016.16 1016.54 1016.86
1011.96 1011.84 1011.74 1011.63 1011.53 1011.43 1011.35 1011.28 1011.23 1011.21 1011.22 1011.27 1011.36 1011.49 1011.64 1011.82 1012.01 1012.20 1012.38 1012.53 1012.65 1012.72 1012.76 1012.77 1012.75 1012.73 1012.72 1012.75 1012.83 1012.99 1013.22 1013.53 1013.91 1014.32 1014.74 1015.15 1015.52 1015.83
1012.03 1011.87 1011.73 1011.60 1011.47 1011.35 1011.23 1011.13 1011.04 1010.97 1010.94 1010.94 1010.98 1011.07 1011.19 1011.34 1011.51 1011.70 1011.88 1012.05 1012.18 1012.28 1012.34 1012.36 1012.35 1012.32 1012.30 1012.30 1012.34 1012.44 1012.60 1012.83 1013.12 1013.46 1013.81 1014.15 1014.47 1014.73
1012.11 1011.89 1011.69 1011.50 1011.32 1011.16 1011.00 1010.86 1010.74 1010.64 1010.57 1010.54 1010.56 1010.62 1010.72 1010.87 1011.05 1011.25 1011.46 1011.66 1011.83 1011.97 1012.07 1012.12 1012.13 1012.11 1012.08 1012.04 1012.03 1012.06 1012.14 1012.27 1012.45 1012.67 1012.92 1013.17 1013.41 1013.62
1012.19 1011.87 1011.58 1011.30 1011.04 1010.81 1010.60 1010.41 1010.26 1010.13 1010.05 1010.01 1010.02 1010.09 1010.20 1010.37 1010.57 1010.81 1011.05 1011.30 1011.53 1011.72 1011.87 1011.97 1012.01 1012.00 1011.96 1011.90 1011.83 1011.78 1011.76 1011.78 1011.84 1011.94 1012.07 1012.23 1012.39 1012.55
1012.20 1011.77 1011.36 1010.97 1010.61 1010.29 1010.01 1009.77 1009.58 1009.44 1009.35 1009.32 1009.34 1009.43 1009.58 1009.78 1010.03 1010.31 1010.61 1010.92 1011.21 1011.46 1011.66 1011.81 1011.88 1011.89 1011.85 1011.75 1011.63 1011.51 1011.40 1011.31 1011.26 1011.25 1011.28 1011.35 1011.44 1011.55
1012.12 1011.56 1011.02 1010.51 1010.04 1009.62 1009.27 1008.97 1008.74 1008.58 1008.49 1008.47 1008.52 1008.64 1008.83 1009.08 1009.38 1009.72 1010.08 1010.45 1010.80 1011.11 1011.37 1011.55 1011.66 1011.69 1011.64 1011.53 1011.37 1011.18 1011.00 1010.82 1010.68 1010.59 1010.54 1010.54 1010.59 1010.68
1011.91 1011.24 1010.58 1009.95 1009.38 1008.87 1008.44 1008.09 1007.82 1007.64 1007.55 1007.53 1007.60 1007.76 1007.98 1008.27 1008.62 1009.01 1009.42 1009.85 1010.25 1010.62 1010.92 1011.16 1011.30 1011.35 1011.31 1011.19 1011.01 1010.79 1010.55 1010.32 1010.12 1009.97 1009.87 1009.84 1009.87 1009.95
1011.59 1010.84 1010.09 1009.38 1008.72 1008.15 1007.65 1007.25 1006.95 1006.74 1006.63 1006.62 1006.69 1006.86 1007.10 1007.42 1007.79 1008.21 1008.66 1009.13 1009.57 1009.98 1010.34 1010.61 1010.79 1010.88 1010.86 1010.75 1010.57 1010.34 1010.08 1009.83 1009.60 1009.41 1009.29 1009.25 1009.27 1009.35
1011.21 1010.42 1009.62 1008.87 1008.17 1007.54 1007.01 1006.57 1006.23 1006.00 1005.86 1005.83 1005.89 1006.04 1006.27 1006.58 1006.95 1007.38 1007.84 1008.32 1008.79 1009.24 1009.63 1009.95 1010.18 1010.31 1010.33 1010.26 1010.10 1009.89 1009.64 1009.38 1009.14 1008.95 1008.81 1008.75 1008.77 1008.86
1010.83 1010.04 1009.26 1008.50 1007.80 1007.17 1006.62 1006.16 1005.79 1005.52 1005.35 1005.27 1005.28 1005.38 1005.56 1005.82 1006.16 1006.56 1007.00 1007.48 1007.97 1008.44 1008.87 1009.23 1009.52 1009.70 1009.79 1009.77 1009.66 1009.48 1009.25 1009.00 1008.77 1008.57 1008.42 1008.34 1008.34 1008.41
1010.51 1009.77 1009.04 1008.34 1007.67 1007.07 1006.53 1006.07 1005.68 1005.37 1005.14 1004.99 1004.92 1004.94 1005.04 1005.22 1005.48 1005.81 1006.21 1006.66 1007.14 1007.62 1008.08 1008.49 1008.84 1009.09 1009.25 1009.30 1009.25 1009.12 1008.93 1008.70 1008.46 1008.24 1008.07 1007.96 1007.91 1007.94
1010.29 1009.65 1009.01 1008.39 1007.79 1007.24 1006.74 1006.28 1005.88 1005.53 1005.24 1005.00 1004.83 1004.74 1004.72 1004.78 1004.93 1005.17 1005.49 1005.89 1006.34 1006.81 1007.30 1007.75 1008.16 1008.49 1008.72 1008.85 1008.87 1008.79 1008.63 1008.42 1008.18 1007.93 1007.71 1007.54 1007.44 1007.40
Thickness
5708 5708 5709 5711 5711 5711 5711 5711 5707 5703 5704 5707 5709 5710 5709 5708 5706 5705 5704 5701 5700 5698 5697 5696 5696 5695 5695 5695 5695 5695 5694 5694 5694 5693 5692 5692 5691 5691
5703 5703 5704 5708 5707 5708 5708 5709 5708 5706 5704 5707 5707 5708 5707 5707 5703 5703 5702 5699 5697 5696 5695 5694 5693 5692 5692 5692 5691 5691 5691 5691 5691 5691 5690 5689 5688 5688
5699 5700 5700 5702 5703 5704 5704 5704 5704 5703 5700 5704 5706 5704 5702 5701 5701 5700 5700 5698 5697 5694 5692 5691 5690 5690 5689 5689 5689 5688 5688 5688 5688 5687 5687 5686 5686 5685
5695 5696 5696 5698 5697 5699 5699 5699 5699 5699 5697 5694 5698 5699 5697 5697 5697 5696 5697 5697 5695 5692 5690 5689 5688 5687 5686 5685 5685 5685 5685 5685 5684 5684 5683 5683 5682 5681
5692 5692 5692 5692 5692 5694 5694 5695 5695 5696 5694 5693 5693 5694 5694 5694 5692 5692 5693 5692 5692 5691 5688 5686 5685 5684 5683 5683 5682 5681 5681 5681 5681 5680 5679 5679 5678 5677
5688 5688 5689 5689 5689 5690 5690 5690 5690 5689 5689 5689 5690 5690 5689 5689 5688 5687 5687 5688 5688 5689 5687 5685 5683 5681 5681 5680 5679 5678 5678 5677 5677 5676 5676 5675 5674 5673
5684 5685 5685 5685 5684 5685 5687 5686 5685 5685 5685 5685 5685 5685 5685 5683 5683 5684 5682 5683 5683 5684 5683 5683 5682 5681 5679 5677 5676 5675 5674 5674 5673 5673 5672 5670 5669 5668
5678 5680 5681 5681 5679 5678 5678 5678 5678 5679 5679 5679 5680 5680 5679 5680 5679 5678 5677 5676 5675 5679 5677 5678 5679 5679 5678 5677 5675 5672 5671 5670 5669 5668 5667 5666 5664 5663
5673 5674 5677 5678 5676 5676 5674 5672 5673 5672 5672 5673 5675 5675 5675 5676 5674 5672 5671 5670 5670 5673 5671 5671 5674 5674 5675 5674 5671 5669 5667 5665 5665 5664 5663 5661 5659 5658
5667 5668 5669 5669 5670 5668 5670 5670 5670 5670 5669 5669 5670 5671 5672 5671 5669 5668 5666 5665 5665 5667 5666 5665 5668 5669 5671 5670 5667 5665 5663 5661 5660 5658 5657 5656 5654 5653
5662 5663 5663 5663 5660 5659 5661 5663 5664 5665 5664 5664 5663 5664 5663 5662 5661 5661 5661 5660 5660 5663 5663 5661 5663 5663 5665 5666 5663 5660 5658 5657 5655 5654 5652 5650 5649 5647
5656 5657 5655 5654 5652 5651 5653 5655 5656 5658 5659 5659 5658 5658 5658 5657 5655 5655 5657 5655 5656 5656 5659 5657 5657 5657 5657 5660 5659 5657 5654 5653 5651 5649 5647 5645 5643 5642
5651 5652 5652 5646 5645 5644 5645 5648 5649 5649 5651 5652 5654 5655 5655 5654 5653 5651 5651 5651 5650 5651 5654 5651 5651 5651 5651 5652 5653 5653 5652 5651 5648 5645 5643 5641 5639 5638
5643 5645 5644 5639 5637 5637 5638 5639 5639 5640 5644 5646 5648 5649 5649 5649 5649 5647 5646 5645 5645 5645 5645 5645 5644 5643 5643 5643 5644 5647 5646 5645 5645 5643 5641 5637 5634 5633
5636 5635 5633 5632 5631 5632 5632 5632 5632 5635 5638 5639 5640 5642 5643 5642 5641 5640 5639 5638 5637 5638 5639 5638 5637 5637 5637 5636 5637 5639 5638 5639 5638 5637 5635 5634 5631 5629
5629 5628 5626 5625 5626 5627 5628 5628 5629 5630 5631 5632 5632 5634 5634 5634 5634 5634 5633 5632 5632 5633 5632 5631 5630 5629 5629 5630 5631 5631 5632 5631 5631 5629 5628 5627 5626 5625
5620 5623 5625 5626 5626 5626 5626 5625 5625 5624 5623 5624 5625 5625 5626 5626 5627 5627 5626 5626 5625 5625 5624 5624 5623 5622 5621 5622 5623 5625 5625 5625 5624 5622 5620 5619 5619 5619
5612 5617 5619 5620 5621 5621 5620 5618 5618 5617 5617 5617 5617 5617 5617 5617 5618 5619 5619 5618 5618 5618 5618 5618 5617 5615 5614 5614 5612 5615 5617 5617 5617 5615 5614 5612 5612 5613
5607 5611 5612 5613 5614 5614 5613 5612 5611 5611 5610 5609 5609 5609 5609 5609 5610 5611 5611 5611 5611 5611 5611 5611 5610 5609 5607 5609 5609 5606 5607 5608 5608 5608 5607 5607 5606 5607
5604 5605 5605 5606 5606 5606 5605 5605 5604 5604 5603 5603 5602 5602 5602 5602 5603 5603 5604 5604 5604 5604 5604 5605 5604 5603 5602 5601 5602 5600 5597 5600 5600 5600 5601 5601 5600 5598
5598 5598 5599 5600 5599 5599 5599 5598 5598 5597 5596 5596 5596 5595 5595 5595 5595 5596 5597 5595 5595 5596 5597 5597 5597 5594 5594 5593 5592 5594 5593 5591 5592 5591 5592 5592 5593 5593
5592 5592 5592 5592 5592 5592 5592 5591 5591 5590 5589 5589 5589 5589 5589 5589 5589 5589 5590 5590 5590 5590 5590 5590 5588 5587 5587 5586 5586 5587 5586 5586 5584 5582 5581 5581 5582 5584
5586 5586 5586 5586 5586 5585 5585 5585 5584 5584 5583 5582 5583 5583 5583 5583 5583 5584 5585 5585 5584 5583 5583 5582 5580 5579 5580 5579 5579 5580 5580 5580 5580 5580 5578 5575 5573 5572